Location: Martin
(32.0982°N, 93.2193°W)
Time: 03:02:37
(UTC+00:00)

ARIANE 6 FM1 Upper Stage - Pass Details

Date: 22 September 2024
Orbit: 563 x 594 km, 62.0° (Epoch: 11 October)

Event Time Altitude Azimuth Distance (km) Brightness Sun altitude
Rises 02:17:09 0° 252° (WSW) 2,768 7.0 -27.3°
Reaches altitude 10° 02:20:10 10° 275° (W) 1,882 6.2 -27.9°
Maximum altitude 02:22:45 16° 313° (NW) 1,558 5.6 -28.4°
Drops below altitude 10° 02:25:22 10° 351° (N) 1,901 5.7 -28.9°
Enters shadow 02:28:04 - 11° (NNE) 2,689 6.2 -29.5°
